Retour au catalogue

SL-12 R/B(2)

ActifGEO
NORAD 20086·ROCKET BODY·🇷🇺 Russia

Lancé Jun 21, 1989 depuis Baikonur Cosmodrome

Loading…

TLE

FraisSource: Space-Track

Époque: Sep 14, 2026, 11:21 UTC

1 20086U 89048D   26257.47347362 -.00000197  00000-0  00000-0 0  9991
2 20086  13.0364 335.4861 0020183 152.3153 209.0933  0.97891919133094

Suivez SL-12 R/B(2) en temps réel avec AllMySat

Download on the App Store